Hourly Weather Chalan

Today, 23 June, Wednesday

Time Temperature Precipitation Wind Pressure Humidity
00:00 +24°C° 0.2 mm 1 mps 730 mmHg 94%
01:00 +24°C° 0 mm 1 mps 730 mmHg 94%
02:00 +24°C° 0.5 mm 1 mps 730 mmHg 94%
03:00 +24°C° 0.5 mm 1 mps 730 mmHg 94%
04:00 +22°C° 0.5 mm 0 mps 730 mmHg 95%
05:00 +24°C° 0.7 mm 1 mps 730 mmHg 93%
06:00 +24°C° 0.7 mm 1 mps 730 mmHg 92%
07:00 +25°C° 0.7 mm 1 mps 731 mmHg 91%
08:00 +26°C° 0.4 mm 1 mps 731 mmHg 87%
09:00 +27°C° 0.4 mm 2 mps 732 mmHg 82%
10:00 +28°C° 0.4 mm 2 mps 732 mmHg 78%
11:00 +29°C° 0 mm 2 mps 732 mmHg 75%
12:00 +29°C° 0 mm 2 mps 731 mmHg 73%
13:00 +29°C° 0 mm 2 mps 731 mmHg 70%
14:00 +29°C° 0.1 mm 2 mps 730 mmHg 71%
15:00 +29°C° 0.1 mm 2 mps 730 mmHg 72%
16:00 +29°C° 0.1 mm 2 mps 729 mmHg 74%
17:00 +28°C° 0 mm 2 mps 729 mmHg 78%
18:00 +27°C° 0 mm 2 mps 729 mmHg 83%
19:00 +25°C° 0 mm 1 mps 729 mmHg 87%
20:00 +25°C° 0.1 mm 1 mps 730 mmHg 88%
21:00 +25°C° 0.1 mm 1 mps 730 mmHg 90%
22:00 +24°C° 0.1 mm 1 mps 730 mmHg 91%
23:00 +24°C° 0.2 mm 1 mps 730 mmHg 92%

Tomorrow, 24 June, Thursday

Time Temperature Precipitation Wind Pressure Humidity
00:00 +24°C° 0.2 mm 1 mps 730 mmHg 93%
01:00 +24°C° 0.2 mm 1 mps 729 mmHg 94%
02:00 +24°C° 0.6 mm 1 mps 729 mmHg 94%
03:00 +24°C° 0.6 mm 1 mps 729 mmHg 95%
04:00 +24°C° 0.6 mm 1 mps 729 mmHg 95%
05:00 +24°C° 0.1 mm 1 mps 729 mmHg 95%
06:00 +24°C° 0.1 mm 1 mps 730 mmHg 94%
07:00 +24°C° 0.1 mm 1 mps 730 mmHg 94%
08:00 +25°C° 0.3 mm 2 mps 730 mmHg 90%
09:00 +26°C° 0.3 mm 2 mps 730 mmHg 85%
10:00 +27°C° 0.3 mm 2 mps 731 mmHg 81%
11:00 +28°C° 0.4 mm 2 mps 730 mmHg 79%
12:00 +28°C° 0.4 mm 2 mps 730 mmHg 76%
13:00 +29°C° 0.4 mm 2 mps 729 mmHg 74%
14:00 +29°C° 0.4 mm 2 mps 728 mmHg 76%
15:00 +28°C° 0.4 mm 2 mps 728 mmHg 78%
16:00 +28°C° 0.4 mm 2 mps 727 mmHg 81%
17:00 +27°C° 0.9 mm 2 mps 728 mmHg 84%
18:00 +26°C° 0.9 mm 2 mps 728 mmHg 87%
19:00 +25°C° 0.9 mm 1 mps 728 mmHg 90%
20:00 +25°C° 0.6 mm 1 mps 729 mmHg 90%
21:00 +25°C° 0.6 mm 1 mps 729 mmHg 91%
22:00 +24°C° 0.6 mm 1 mps 730 mmHg 91%
23:00 +24°C° 0.1 mm 1 mps 730 mmHg 92%

Day after tomorrow, 25 June, Friday

Time Temperature Precipitation Wind Pressure Humidity
00:00 +24°C° 0.1 mm 1 mps 729 mmHg 92%
01:00 +24°C° 0.1 mm 1 mps 729 mmHg 92%
02:00 +24°C° 0.4 mm 1 mps 729 mmHg 92%
03:00 +24°C° 0.4 mm 1 mps 729 mmHg 92%
04:00 +23°C° 0.4 mm 1 mps 729 mmHg 92%
05:00 +24°C° 0.6 mm 1 mps 729 mmHg 93%
06:00 +24°C° 0.6 mm 2 mps 730 mmHg 94%
07:00 +24°C° 0.6 mm 2 mps 730 mmHg 94%
08:00 +25°C° 0.1 mm 2 mps 730 mmHg 91%
09:00 +26°C° 0.1 mm 3 mps 731 mmHg 87%
10:00 +26°C° 0.1 mm 3 mps 731 mmHg 84%
11:00 +27°C° 0.1 mm 3 mps 730 mmHg 82%
12:00 +27°C° 0.1 mm 2 mps 730 mmHg 81%
13:00 +27°C° 0.1 mm 2 mps 729 mmHg 80%
14:00 +27°C° 0.6 mm 1 mps 729 mmHg 81%
15:00 +27°C° 0.6 mm 1 mps 729 mmHg 82%
16:00 +25°C° 0.6 mm 0 mps 728 mmHg 83%
17:00 +24°C° 0.1 mm 0 mps 729 mmHg 85%
18:00 +23°C° 0.1 mm 0 mps 729 mmHg 88%
19:00 +23°C° 0.1 mm 0 mps 729 mmHg 90%
20:00 +23°C° 0 mm 0 mps 730 mmHg 91%
21:00 +22°C° 0 mm 0 mps 730 mmHg 91%
22:00 +22°C° 0 mm 0 mps 730 mmHg 92%
23:00 +22°C° 0.5 mm 0 mps 730 mmHg 92%

26 June, Saturday

Time Temperature Precipitation Wind Pressure Humidity
00:00 +22°C° 0.5 mm 0 mps 730 mmHg 93%
01:00 +21°C° 0.5 mm 0 mps 729 mmHg 93%
02:00 +21°C° 0.2 mm 0 mps 729 mmHg 93%
03:00 +23°C° 0.2 mm 1 mps 729 mmHg 93%
04:00 +23°C° 0.2 mm 1 mps 729 mmHg 93%
05:00 +23°C° 0 mm 1 mps 729 mmHg 93%
06:00 +24°C° 0 mm 1 mps 730 mmHg 92%
07:00 +24°C° 0 mm 1 mps 730 mmHg 92%
08:00 +25°C° 0 mm 1 mps 730 mmHg 86%
09:00 +27°C° 0 mm 1 mps 730 mmHg 81%
10:00 +28°C° 0 mm 1 mps 730 mmHg 75%
11:00 +28°C° 0.1 mm 1 mps 730 mmHg 72%
12:00 +29°C° 0.1 mm 2 mps 729 mmHg 69%
13:00 +30°C° 0.1 mm 2 mps 729 mmHg 66%
14:00 +29°C° 0.8 mm 2 mps 728 mmHg 71%
15:00 +28°C° 0.8 mm 2 mps 728 mmHg 75%
16:00 +28°C° 0.8 mm 2 mps 728 mmHg 79%
17:00 +27°C° 0.7 mm 2 mps 728 mmHg 83%
18:00 +26°C° 0.7 mm 2 mps 729 mmHg 87%
19:00 +25°C° 0.7 mm 2 mps 729 mmHg 90%
20:00 +24°C° 0.3 mm 2 mps 729 mmHg 91%
21:00 +24°C° 0.3 mm 2 mps 730 mmHg 92%
22:00 +24°C° 0.3 mm 1 mps 730 mmHg 93%
23:00 +24°C° 0.1 mm 1 mps 730 mmHg 92%

27 June, Sunday

Time Temperature Precipitation Wind Pressure Humidity
00:00 +24°C° 0.1 mm 1 mps 729 mmHg 92%
01:00 +22°C° 0.1 mm 0 mps 729 mmHg 92%
02:00 +23°C° 0.2 mm 1 mps 729 mmHg 92%
03:00 +23°C° 0.2 mm 1 mps 729 mmHg 92%
04:00 +23°C° 0.2 mm 1 mps 729 mmHg 92%
05:00 +24°C° 0 mm 1 mps 729 mmHg 92%
06:00 +24°C° 0 mm 1 mps 730 mmHg 92%
07:00 +24°C° 0 mm 2 mps 730 mmHg 93%
08:00 +25°C° 0 mm 2 mps 730 mmHg 87%
09:00 +27°C° 0 mm 2 mps 730 mmHg 82%
10:00 +28°C° 0 mm 3 mps 730 mmHg 76%
11:00 +28°C° 0 mm 2 mps 730 mmHg 74%
12:00 +29°C° 0 mm 2 mps 729 mmHg 73%
13:00 +29°C° 0 mm 2 mps 729 mmHg 71%
14:00 +29°C° 0.3 mm 2 mps 729 mmHg 74%
15:00 +29°C° 0.3 mm 2 mps 728 mmHg 76%
16:00 +28°C° 0.3 mm 2 mps 728 mmHg 79%
17:00 +27°C° 0.5 mm 2 mps 728 mmHg 83%
18:00 +26°C° 0.5 mm 2 mps 729 mmHg 87%
19:00 +25°C° 0.5 mm 2 mps 729 mmHg 92%
20:00 +25°C° 0.3 mm 2 mps 729 mmHg 92%
21:00 +24°C° 0.3 mm 2 mps 730 mmHg 93%
22:00 +24°C° 0.3 mm 1 mps 730 mmHg 93%
23:00 +24°C° 4 mm 1 mps 730 mmHg 95%

28 June, Monday

Time Temperature Precipitation Wind Pressure Humidity
00:00 +24°C° 4 mm 1 mps 729 mmHg 96%
01:00 +24°C° 4 mm 1 mps 729 mmHg 97%
02:00 +23°C° 1 mm 1 mps 729 mmHg 97%
03:00 +23°C° 1 mm 1 mps 729 mmHg 96%
04:00 +23°C° 1 mm 1 mps 730 mmHg 96%
05:00 +23°C° 0 mm 1 mps 730 mmHg 95%
06:00 +24°C° 0 mm 1 mps 730 mmHg 95%
07:00 +24°C° 0 mm 1 mps 731 mmHg 94%
08:00 +25°C° 0 mm 1 mps 731 mmHg 90%
09:00 +26°C° 0 mm 1 mps 731 mmHg 86%
10:00 +27°C° 0 mm 2 mps 731 mmHg 82%
11:00 +28°C° 0.1 mm 1 mps 731 mmHg 78%
12:00 +28°C° 0.1 mm 1 mps 730 mmHg 74%
13:00 +27°C° 0.1 mm 0 mps 730 mmHg 70%
14:00 +29°C° 0.1 mm 1 mps 729 mmHg 71%
15:00 +29°C° 0.1 mm 1 mps 729 mmHg 72%
16:00 +29°C° 0.1 mm 2 mps 728 mmHg 72%
17:00 +28°C° 0.1 mm 2 mps 729 mmHg 78%
18:00 +27°C° 0.1 mm 2 mps 729 mmHg 83%
19:00 +26°C° 0.1 mm 1 mps 729 mmHg 88%
20:00 +25°C° 0 mm 1 mps 730 mmHg 89%
21:00 +25°C° 0 mm 1 mps 730 mmHg 90%
22:00 +25°C° 0 mm 2 mps 730 mmHg 91%
23:00 +24°C° 0.1 mm 1 mps 730 mmHg 90%
Show more

We Need Your Consent

Meteoprog and our Service Providers may store and access personal data such as cookies, device identifiers or other similar technologies on your device and process such data to personalise content and ads, as well as provide social media features and to analyse the traffic.

  • Store and/or access information on your device

    Cookies, device identifiers or other information can be stored or accessed on your device for the purposes indicated above.

  • Personalised ads and content, ad and content measurement, audience insights, and products development

    Ads and content can be personalised based on a profile. More data can be added to better personalise ads and content. Ad and content performance can be measured. Insights about the audience who saw the ads and content can be derived. Such data can be used to develop or improve user’s experience, systems and software.

By clicking ‘I Agree’ you will allow the use of indicated cookies, device identifiers, web beacons or other similar technologies. Your settings can be changed in the browser on your device.

For certain purposes, legitimate interests may be relied on, rather than consent. You can read more about this in our Privacy and Cookie Policy.